Simultaneous Nadir Overpasses (SNOs) Predictions

Prediction of SNOs between GOES-16 and METOP-C Satellite Orbit:

Table of predicted SNOs for the next 14.0 days since TLE Epoch: 1/3/2020
Index Date Time (GOES-16) GOES-16 Lat,Lon METOP-C Lat,Lon Distance(km) Time Diff (sec)
1 01/04/2020 02:31:01 -0.03, -75.19 -0.06, -75.37 19.70 80
2 01/06/2020 14:31:23 0.03, -75.21 -0.07, -74.80 46.27 80
3 01/08/2020 02:47:26 -0.03, -75.21 -0.96, -79.32 469.67 80
4 01/09/2020 02:29:16 -0.03, -75.21 0.20, -74.29 105.62 80
5 01/10/2020 14:45:08 0.03, -75.22 0.83, -78.76 403.35 80
6 01/11/2020 14:26:58 0.04, -75.23 -0.33, -73.73 172.19 80
7 01/13/2020 02:43:01 -0.04, -75.23 -0.70, -78.25 343.12 80
8 01/14/2020 02:24:49 -0.05, -75.24 0.40, -73.20 232.73 80
9 01/15/2020 14:40:43 0.05, -75.26 0.57, -77.68 275.32 80
10 01/16/2020 14:22:31 0.05, -75.28 -0.52, -72.63 300.94 80




NCC Satellite Simultaneous Nadir Overpasses (SNOs) Prediction Service
